Location: Newark
(15.4608°S, 41.1635°W)
Time: 00:47:34
(UTC+00:00)

SR - Visible Passes

Search period start: 31 July 2021 00:00
Search period end: 10 August 2021 00:00
Orbit: 577 x 878 km, 66.7° (Epoch: 30 July)

Date Brightness Start Highest point End Pass type
(mag) Time Alt. Az. Time Alt. Az. Time Alt. Az.
31 Jul ? 06:04:15 17° E 06:04:15 17° E 06:06:28 10° ENE visible
31 Jul ? 07:43:43 37° W 07:44:18 38° WNW 07:49:42 10° N visible
01 Aug ? 06:56:21 48° NNE 06:56:21 48° NNE 07:00:30 10° NNE visible
02 Aug ? 06:08:57 17° NE 06:08:57 17° NE 06:10:18 10° NE visible
02 Aug ? 07:48:25 15° NW 07:48:25 15° NW 07:50:22 10° NNW visible
03 Aug ? 07:00:58 17° N 07:00:58 17° N 07:02:24 10° N visible
